Weather observations for the past three days for
Cleveland Hopkins International Airport
Imperial (Metric)
Date Time (edt) Wind (mph) Vis. (mi.) Weather Sky Cond. Temperature (ºF) Relative Humidity Wind Chill (°F) Heat Index (°F) Pressure Precipitation (in)
Air Dwpt 6 hour altimeter (in) sea level (mb) 1 hr 3 hr 6 hr
Max. Min.
12 12:51 SW 9 G 17 10.00 Fair CLR 79 46.9 32% 79 30 1017.1
12 11:51 W 6 10.00 Fair CLR 78.1 48.9 36% 79 30.01 1017.3
12 10:51 W 6 10.00 A Few Clouds FEW090 75 52 45% 78 30.02 1017.8
12 09:51 SW 9 10.00 A Few Clouds FEW130 71.1 52 51% 30.02 1017.8
12 08:51 SW 8 10.00 Partly Cloudy SCT130 66.9 52 59% 30.01 1017.5
12 07:51 S 9 10.00 A Few Clouds FEW120 FEW180 63 50 63 54 63% 30.01 1017.5
12 06:51 S 6 10.00 Mostly Cloudy BKN120 59 48.9 69% 30 1017.3
12 05:51 S 9 10.00 Partly Cloudy FEW160 SCT250 55.9 46.9 72% 30 1017.1
12 04:51 S 8 10.00 Mostly Cloudy BKN160 55.9 46.9 72% 29.99 1016.9
12 03:51 S 5 10.00 Mostly Cloudy FEW070 BKN180 55 46 72% 30 1017.1
12 02:51 S 6 10.00 Mostly Cloudy BKN190 55.9 46 70% 30 1017.2
12 01:51 SE 5 10.00 Mostly Cloudy BKN250 55.9 45 64.9 55.9 67% 30 1017.3
12 00:51 Calm 10.00 Mostly Cloudy BKN220 57 45 64% 30 1017.3
11 23:51 SE 5 10.00 Mostly Cloudy BKN250 57 43 60% 30 1017.3
11 22:51 SE 5 10.00 Mostly Cloudy BKN250 59 41 51% 30 1017.3
11 21:51 SE 5 10.00 Mostly Cloudy BKN250 60.1 39.9 48% 30 1017.3
11 20:51 E 7 10.00 Partly Cloudy SCT250 62.1 37.9 41% 29.99 1017.1
11 19:51 N 7 10.00 Partly Cloudy SCT250 64 39.9 69.1 64 41% 29.99 1017.1
11 18:51 N 9 10.00 Partly Cloudy SCT250 66 39.9 39% 29.99 1017.2
11 17:51 N 9 10.00 Partly Cloudy SCT250 66.9 41 39% 29.99 1017.0
11 16:51 N 12 10.00 Partly Cloudy SCT250 68 44.1 42% 29.99 1017.1
11 15:51 N 10 10.00 A Few Clouds FEW040 FEW250 68 44.1 42% 30 1017.4
11 14:51 Vrbl 3 10.00 A Few Clouds FEW033 FEW250 66.9 46 47% 30 1017.6
11 13:51 Vrbl 6 10.00 A Few Clouds FEW033 64.9 46 66 53.1 51% 30.01 1017.8
11 12:51 NE 10 10.00 A Few Clouds FEW033 66 46.9 50% 30.02 1017.9
11 11:51 N 10 10.00 Partly Cloudy SCT035 64.9 48 54% 30.03 1018.4
11 10:51 NW 6 10.00 Partly Cloudy SCT033 64 46.9 54% 30.01 1017.7
11 09:51 N 9 10.00 Partly Cloudy SCT038 61 46.9 60% 30.02 1018.0
11 08:51 NW 7 10.00 Partly Cloudy FEW030 SCT040 60.1 51.1 72% 30.01 1017.6
11 07:51 SW 3 10.00 Partly Cloudy FEW025 FEW030 SCT037 52 48.9 52 44.1 89% 30 1017.4
11 06:51 Calm 10.00 A Few Clouds FEW024 48.9 46 90% 29.98 1016.8
11 05:51 Calm 10.00 A Few Clouds FEW028 46 44.1 93% 29.97 1016.6
11 04:51 SW 3 10.00 Fair CLR 46 43 89% 29.95 1016.0
11 03:51 Calm 10.00 A Few Clouds FEW250 48 46 93% 29.95 1015.9
11 02:51 Calm 10.00 A Few Clouds FEW026 48.9 46.9 93% 29.94 1015.4
11 01:51 Calm 10.00 Mostly Cloudy BKN028 50 46.9 61 48.9 89% 29.93 1015.0
11 00:51 S 3 10.00 A Few Clouds FEW070 51.1 46.9 86% 29.93 1015.2
10 23:51 Calm 10.00 Mostly Cloudy BKN070 54 48 80% 29.93 1014.9
10 22:51 SW 5 10.00 Mostly Cloudy BKN065 54 48 80% 29.92 1014.7
10 21:51 Calm 10.00 Partly Cloudy SCT080 SCT250 55 46 72% 29.9 1014.0
10 20:51 N 5 10.00 Partly Cloudy SCT080 SCT150 57 46 67% 29.89 1013.5
10 19:51 NW 7 10.00 A Few Clouds FEW080 61 45 61 57 56% 29.87 1013.0
10 18:51 N 3 10.00 Mostly Cloudy BKN080 60.1 46 60% 29.87 1012.8
10 17:51 N 8 10.00 Overcast BKN030 OVC037 59 46 62% 29.87 1013.0
10 16:51 NW 10 10.00 Overcast OVC032 59 46 62% 29.87 1013.2
10 15:51 NW 9 10.00 Overcast OVC027 57.9 46 65% 29.88 1013.2
10 14:51 N 10 10.00 Overcast OVC027 57.9 46 65% 29.87 1012.9
10 13:51 NW 14 G 20 10.00 Overcast OVC018 57 48 59 55.9 72% 29.86 1012.6 0.01
10 12:51 N 10 10.00 Overcast OVC018 57 51.1 81% 29.84 1012.1
10 11:51 N 6 10.00 Overcast OVC016 57 51.1 81% 29.83 1011.4
10 10:51 N 7 4.00 Light Rain Fog/Mist BKN014 OVC019 55.9 52 87% 29.82 1011.3 0.01 0.01
10 09:51 N 10 10.00 Overcast OVC019 57.9 50 75% 29.81 1010.9
10 08:51 N 9 10.00 Overcast OVC019 57.9 50 75% 29.8 1010.4
10 07:51 NW 7 10.00 Overcast OVC022 57.9 48.9 57.9 52 72% 29.79 1010.1
10 06:51 N 8 10.00 Overcast BKN023 OVC032 57.9 48.9 72% 29.78 1009.6
10 05:51 N 3 10.00 Mostly Cloudy FEW027 BKN038 57.9 48.9 72% 29.77 1009.3
10 04:51 W 3 10.00 Mostly Cloudy BKN034 54 50 87% 29.77 1009.3
10 03:51 W 3 10.00 Fair CLR 54 48.9 83% 29.76 1009.2
10 02:51 Calm 10.00 Fair CLR 55.9 48 75% 29.77 1009.3
10 01:51 NE 3 10.00 Fair CLR 57 48 71.1 57 72% 29.77 1009.4
10 00:51 NE 9 10.00 A Few Clouds FEW026 57.9 50 75% 29.77 1009.3
09 23:51 NE 10 10.00 Mostly Cloudy FEW012 BKN075 60.1 53.1 78% 29.78 1009.5
09 22:51 N 9 10.00 Mostly Cloudy BKN100 63 52 68% 29.76 1009.0
09 21:51 N 10 10.00 Overcast SCT080 OVC100 68 48.9 51% 29.75 1008.5
09 20:51 NW 14 G 22 10.00 Overcast OVC100 71.1 48.9 46% 29.74 1008.1
09 19:51 W 10 10.00 Overcast OVC100 71.1 46.9 77 71.1 42% 29.73 1007.9
09 18:51 W 13 G 26 10.00 Overcast BKN095 OVC120 72 46 40% 29.73 1007.7
09 17:51 W 22 G 33 10.00 Mostly Cloudy and Breezy FEW070 BKN110 73 45 37% 29.72 1007.5
09 16:51 W 20 G 32 10.00 Partly Cloudy FEW065 SCT110 75.9 46.9 36% 78 29.72 1007.4
09 15:51 W 20 G 29 10.00 Mostly Cloudy FEW065 BKN110 BKN250 73 45 37% 29.73 1007.8
09 14:51 W 18 G 28 10.00 A Few Clouds FEW050 FEW100 FEW250 75.9 46.9 36% 78 29.73 1008.0
09 13:51 W 15 G 24 10.00 A Few Clouds FEW040 FEW250 75 51.1 75 61 43% 78 29.76 1008.8
Date Time (edt) Wind (mph) Vis. (mi.) Weather Sky Cond. Air Dwpt Max. Min. Relative Humidity Wind Chill (°F) Heat Index (°F) altimeter (in) sea level (mb) 1 hr 3 hr 6 hr
6 hour
Temperature (ºF) Pressure Precipitation (in)